Home   Weather   Mexicali   Past weeks

Flag for Mexico Past Weather in Mexicali, Baja California, Mexico — Yesterday and Last 2 Weeks

Now
91 °F

Sunny.


Feels Like: 87 °F
Forecast: 64 / 94 °F
Wind: 18 mph from West

Location: Imperial County Airport

Current Time: Apr 23, 2017 at 6:58:43 pm

Latest Report: Apr 23, 2017 at 5:53 pm


Visibility: 10 mi

Pressure: 29.65 "Hg

Humidity: 8%

Dew Point: 23 °F

Location of MexicaliLocation

Past Weather in Mexicali — Graph

°F

Mexicali Temperature Yesterday

Maximum temperature yesterday: 96 °F (at 1:53 pm)
Minimum temperature yesterday: 61 °F (at 5:53 am)
Average temperature yesterday: 80 °F

High & Low Weather Summary for the Past Weeks

 TemperatureHumidityPressure
High97 °F (Apr 23, 1:53 pm)67% (Apr 19, 5:53 am)30.04 "Hg (Apr 19, 5:53 am)
Low52 °F (Apr 9, 6:53 am)6% (Apr 10, 4:53 pm)29.66 "Hg (Apr 23, 4:53 pm)
Average75 °F30%29.87 "Hg
* Reported Apr 8 4:53 pm — Apr 23 4:53 pm, Mexicali, Weather by CustomWeather, © 2017

Note: Actual official high and low records may vary slightly from our data, if they occured in-between our weather recording intervals... More about our weather records

Advertising

Mexicali Weather History for the Previous 24 Hours

Scroll right to see more
 ConditionsComfort  
Time TempWeatherWind HumidityBarometerVisibility
4:53 pm
Sun, Apr 23
94 °FSunny.16 mph17%29.66 "Hg10 mi
3:53 pm94 °FSunny.22 mph19%29.66 "Hg10 mi
2:53 pm97 °FSunny.21 mph16%29.67 "Hg10 mi
1:53 pm97 °FSunny.18 mph13%29.69 "Hg10 mi
12:53 pm96 °FSunny.12 mph10%29.70 "Hg10 mi
11:53 am94 °FSunny.10 mph12%29.73 "Hg10 mi
10:53 am90 °FSunny.9 mph17%29.74 "Hg10 mi
9:53 am89 °FSunny.8 mph15%29.75 "Hg10 mi
8:53 am84 °FSunny.6 mph26%29.75 "Hg10 mi
7:53 am76 °FSunny.8 mph29%29.74 "Hg10 mi
6:53 am68 °FSunny.3 mph31%29.72 "Hg10 mi
5:53 am67 °FClear.3 mph32%29.71 "Hg10 mi
4:53 am67 °FClear.No wind31%29.71 "Hg10 mi
3:53 am66 °FClear.8 mph36%29.71 "Hg10 mi
2:53 am68 °FClear.3 mph32%29.71 "Hg10 mi
1:53 am73 °FClear.7 mph25%29.72 "Hg10 mi
12:53 am74 °FClear.9 mph26%29.74 "Hg10 mi
11:53 pm
Sat, Apr 22
76 °FClear.6 mph25%29.75 "Hg10 mi
10:53 pm76 °FClear.8 mph25%29.75 "Hg10 mi
9:53 pm81 °FClear.12 mph22%29.75 "Hg10 mi
8:53 pm77 °FClear.8 mph30%29.74 "Hg10 mi
7:53 pm88 °FClear.6 mph15%29.72 "Hg10 mi
6:53 pm93 °FSunny.6 mph12%29.72 "Hg10 mi
Weather by CustomWeather, © 2017

See weather overviewHow to use our weather pages